Regional Weather Roundup
Issued by NWS

Home | Current Version | Previous Version | Text Only | Print | Product List | Glossary On
Versions: 1 2 3 4 5 6 7 8 9 10 11 12 13 14 15 16 17 18 19 20 21 22 23 24 25 26 27 28 29 30 31 32 33 34 35 36 37 38 39 40 41 42 43 44 45 46 47 48 49 50
000
ASUS43 KLOT 112103
RWRIL

ILLINOIS REGIONAL WEATHER ROUNDUP
NATIONAL WEATHER SERVICE CHICAGO/ROMEOVILLE IL
300 PM CST MON DEC 11 2017

NOTE: "FAIR" INDICATES FEW OR NO CLOUDS BELOW 12,000 FEET WITH NO
SIGNIFICANT WEATHER AND/OR OBSTRUCTIONS TO VISIBILITY.

* THESE STATIONS ARE NOT UNDER NWS QUALITY CONTROL. THEY ALSO MAY NOT
  REPORT WEATHER SUCH AS PRECIPITATION OR FOG.

ILZ001-002-007-009-015-016-024-112200-
NORTHWEST ILLINOIS

CITY           SKY/WX    TMP DP  RH WIND       PRES   REMARKS
MOLINE         CLOUDY    42  27  55 NW17G25   29.72R
STERLING*      CLOUDY    40  27  59 N9        29.70R
SAVANNA*       SNOW      32  32  99 N7        29.74R VSB 1/2 WCI  26
$$

ILZ003-004-008-010-011-017-018-112200-
NORTH CENTRAL ILLINOIS

CITY           SKY/WX    TMP DP  RH WIND       PRES   REMARKS
ROCKFORD       LGT SNOW  33  29  85 N8        29.72R FOG     WCI  26
FREEPORT*      SNOW      31  31  99 NW3       29.73R VSB 1/4
ROCHELLE*      CLOUDY    38  28  67 CALM      29.69R
DE KALB*       CLOUDY    37  27  68 E3        29.68R
PERU*          CLOUDY    42  26  54 NW9       29.66R
$$

ILZ005-006-012>014-019>023-112200-
NORTHEAST ILLINOIS

CITY           SKY/WX    TMP DP  RH WIND       PRES   REMARKS
CHICAGO-OHARE  CLOUDY    38  25  59 NE6       29.66F WCI  33
CHICAGO-MIDWAY CLOUDY    39  26  59 SE5       29.67S
AURORA         CLOUDY    39  27  62 NE3       29.67R
LANSING*       CLOUDY    39  29  69 SE6       29.67S WCI  34
JOLIET*          N/A    N/A N/A N/A E6        29.66
WAUKEGAN       SNOW      31  28  89 CALM      29.70R VSB 1/4
DUPAGE AIRPORT CLOUDY    38  27  64 E5        29.66S WCI  34
KANKAKEE*      CLOUDY    43  27  54 E8        29.65S
WHEELING       PTSUNNY   37  27  67 S5        29.69S WCI  33
MORRIS*        CLOUDY    40  28  62 E7        29.64F
ROMEOVILLE*    CLOUDY    39  28  63 SE3       29.66S
NORTHERLY ISL    N/A     37  28  70 E6          N/A  WCI  32
$$

LMZ740>746-112200-
SOUTHERN LAKE MICHIGAN

STATION/POSITION SKY/WX   TEMP    WIND        PRES    VSBY  WAVE
                          AIR SEA DIR/SP/G                  HT/PER
                          (F)     (DEG/KT/KT) (MB)    (MI)  (FT/S)
HARRISON CRIB              38     140/  9/ 11   N/A
BURNHAM HARBOR             37     150/  3/  9   N/A
CALUMET HARBOR             37     120/  4/  8 1004.3F
BURNS HARBOR               36     150/  6/ 13 1005.4F
MICHIGAN CITY              33      90/  8/ 11   N/A
$$

ILZ025>027-034>036-040-047-049-050-058-095>099-112200-
WEST-CENTRAL ILLINOIS

CITY           SKY/WX    TMP DP  RH WIND       PRES   REMARKS
QUINCY         PTSUNNY   48  30  49 NW31G44   29.80R
GALESBURG*     CLOUDY    43  28  54 W22G30    29.72R
MACOMB*        CLOUDY    45  29  53 NW28      29.76R
JACKSONVILLE*  CLOUDY    49  28  43 W26G43    29.75R
PITTSFIELD*    CLOUDY    50  31  48 NW30G40   29.79R
$$

ILZ028>032-037-038-041>044-048-051>054-059>061-112200-
CENTRAL ILLINOIS

CITY           SKY/WX    TMP DP  RH WIND       PRES   REMARKS
PONTIAC        CLOUDY    46  27  47 W25       29.64R
BLOOMINGTON    MOSUNNY   47  25  42 W22G31    29.65R
DECATUR        SUNNY     51  23  33 W22G31    29.68R
PEORIA         SUNNY     47  25  42 NW20G32   29.68R
LACON*         MOSUNNY   44  27  51 W9G21     29.66R
LINCOLN*       SUNNY     50  27  40 W15G26    29.68R
SPRINGFIELD    SUNNY     51  25  36 W25G38    29.71R
TAYLORVILLE    SUNNY     51  23  34 W30G38    29.72R
$$

ILZ033-039-045-046-055>057-062-063-112200-
EAST-CENTRAL ILLINOIS

CITY           SKY/WX    TMP DP  RH WIND       PRES   REMARKS
CHAMPAIGN      SUNNY     53  25  33 W25G32    29.64S
DANVILLE*      MOSUNNY   48  29  47 S13       29.61F
RANTOUL*       SUNNY     51  28  40 W18       29.63R
MATTOON        SUNNY     53  26  35 W14G22    29.65F
PARIS*         MOSUNNY   51  32  48 SW17      29.66F
$$

ILZ079-100>102-112200-
SOUTHWEST ILLINOIS

CITY           SKY/WX    TMP DP  RH WIND       PRES   REMARKS
ALTON          SUNNY     52  28  40 W24G33    29.77R
BELLEVILLE     CLOUDY    57  23  27 NW24G41   29.76R
CAHOKIA*       SUNNY     56  22  26 W24G37    29.79R
$$

ILZ064>066-069>071-074>076-080>082-084>086-088>090-092>094-112200-
SOUTH-CENTRAL ILLINOIS

CITY           SKY/WX    TMP DP  RH WIND       PRES   REMARKS
CARBONDALE     CLOUDY    56  33  42 S12       29.76F
CAIRO*         PTSUNNY   59  34  39 S14G24    29.79F
EFFINGHAM*     CLOUDY    56  27  32 SW20G25   29.70S
MARION         PTSUNNY   59  28  31 SW12G21   29.77S
MT. VERNON     MOSUNNY   57  31  37 SW12      29.75R
CENTRALIA*     CLOUDY    58  26  29 W17G24    29.73S
SALEM*         MOSUNNY   58  22  24 W20G29    29.73S
METROPOLIS*    SUNNY     61  29  30 SW14G22   29.79F
$$

ILZ067-068-072-073-078-083-087-091-112200-
SOUTHEAST ILLINOIS

CITY           SKY/WX    TMP DP  RH WIND       PRES   REMARKS
LAWRENCEVILLE  CLOUDY    54  32  43 SW20      29.71F
FLORA*         CLOUDY    58  29  33 W16G23    29.72R
FAIRFIELD*     CLOUDY    57  30  36 SW9       29.72S
HARRISBURG*    CLOUDY    57  32  38 SW13G23   29.76S
ROBINSON*      CLOUDY    52  32  46 SW16      29.70S
CARMI*         CLOUDY    57  31  36 SW21      29.74S
$$

ABBREVIATIONS USED IN REMARKS
   TC - TEMPERATURE IN CELSIUS
  WCI - WIND CHILL INDEX
   HX - HEAT INDEX
  VSB - VISIBILITY
$$





USA.gov is the U.S. government's official web portal to all federal, state and local government web resources and services.